"Pseudo-MPEC" for A11EQsq

Created 2026 Jul 23 10:35:01 UT using Find_Orb

Click here for an explanation of pseudo-MPECs

 
 Astrometry: 
     A11EQsq*0C2026 07 15.87032216 53 09.247-65 20 04.16   ~7H6Z 18.48oVNEOCPM22
     A11EQsq 0C2026 07 15.87393116 53 06.192-65 20 09.96   ~7H6Z 18.54oVNEOCPM22
     A11EQsq 0C2026 07 15.88038916 53 00.674-65 20 19.07   ~7H6Z 18.55oVNEOCPM22
     A11EQsq 0C2026 07 15.89077016 52 52.337-65 20 27.92   ~7H6Z 18.73oVNEOCPM22

Station data:
(M22) ATLAS South Africa, Sutherland  (S32.380156 E20.810590)  South Africa.
   Observers L. Denneau, R. Siverd, J. Tonry, H. Weiland. Measurers L.
   Denneau, N. Erasmus, A. Fitzsimmons, J. Robinson, R. Siverd, J. Tonry, H.
   Weiland. 0.5-m f/2.0 Schmidt + CCD.

Orbital elements:  A11EQsq
   Perihelion 2026 Apr 18.154637 +/- 97.6 TT =  3:42:40.6 (JD 2461148.654637)
Epoch 2026 Jul 16.0 TT = JDT 2461237.5   Earth MOID: 0.0059      AutoNEOCP
M 107.625360623 +/- 100             (J2000 ecliptic)
n   1.211378477 +/- 0.229           Peri.   44.008731 +/- 19
a   0.871530948 +/- 0.11            Node   107.694352 +/- 59
e   0.36420908 +/- 0.12             Incl.   26.312908 +/- 12
P   0.814/297.176d         H 23.24  G  0.15   U 11.8  SR
q 0.554111457 +/- 0.152    Q 1.188950439 +/- 0.287
From 4 observations 2026 July 15 (29.4 min); mean residual 0".95
Residuals in arcseconds: 
260715 M22  .42+  1.2+    260715 M22  .95-  1.9-    
260715 M22  .08+  .30-    260715 M22  .45+  .97+    

Ephemerides (geocentric):
Date (UTC) HH   RA             Dec           delta  r     elong  mag " sig PA
---- --------  ------------   ------------  ------ ------ -----  --- --------
2026 07 23 11  16 15 23.343   -66 08 11.97  .12378 1.0845 120.8 20.8  45d 174
2026 07 23 12  16 15 19.131   -66 08 12.98  .12415 1.0846 120.8 20.8  45d 174
2026 07 23 13  16 15 14.964   -66 08 13.93  .12453 1.0848 120.7 20.9  45d 174
2026 07 23 14  16 15 10.842   -66 08 14.83  .12490 1.0850 120.7 20.9  45d 174
2026 07 23 15  16 15 06.764   -66 08 15.68  .12528 1.0851 120.7 20.9  45d 174
2026 07 23 16  16 15 02.729   -66 08 16.47  .12565 1.0853 120.7 20.9  45d 174
2026 07 23 17  16 14 58.739   -66 08 17.21  .12603 1.0855 120.6 20.9  45d 174
2026 07 23 18  16 14 54.791   -66 08 17.90  .12640 1.0856 120.6 20.9  45d 175
2026 07 23 19  16 14 50.886   -66 08 18.53  .12678 1.0858 120.6 20.9  45d 175
2026 07 23 20  16 14 47.024   -66 08 19.12  .12715 1.0860 120.5 20.9  45d 175
2026 07 23 21  16 14 43.204   -66 08 19.65  .12753 1.0861 120.5 20.9  45d 175
2026 07 23 22  16 14 39.426   -66 08 20.13  .12791 1.0863 120.5 20.9  45d 175
2026 07 23 23  16 14 35.690   -66 08 20.57  .12828 1.0865 120.4 20.9  45d 175
2026 07 24 00  16 14 31.994   -66 08 20.95  .12866 1.0866 120.4 20.9  45d 175
2026 07 24 01  16 14 28.340   -66 08 21.28  .12903 1.0868 120.4 20.9  45d 175
2026 07 24 02  16 14 24.727   -66 08 21.57  .12941 1.0870 120.4 20.9  45d 176
2026 07 24 03  16 14 21.153   -66 08 21.81  .12978 1.0871 120.3 20.9  45d 176
2026 07 24 04  16 14 17.620   -66 08 22.00  .13016 1.0873 120.3 21.0  45d 176
2026 07 24 05  16 14 14.127   -66 08 22.15  .13053 1.0875 120.3 21.0  45d 176
2026 07 24 06  16 14 10.673   -66 08 22.24  .13091 1.0876 120.2 21.0  46d 176
2026 07 24 07  16 14 07.258   -66 08 22.30  .13128 1.0878 120.2 21.0  46d 176
2026 07 24 08  16 14 03.882   -66 08 22.31  .13166 1.0879 120.2 21.0  46d 176
2026 07 24 09  16 14 00.545   -66 08 22.27  .13203 1.0881 120.2 21.0  46d 176
2026 07 24 10  16 13 57.246   -66 08 22.19  .13241 1.0883 120.1 21.0  46d 176
2026 07 24 11  16 13 53.985   -66 08 22.07  .13278 1.0884 120.1 21.0  46d 176
2026 07 24 12  16 13 50.762   -66 08 21.90  .13316 1.0886 120.1 21.0  46d 177
2026 07 24 13  16 13 47.577   -66 08 21.69  .13353 1.0888 120.0 21.0  46d 177
2026 07 24 14  16 13 44.428   -66 08 21.44  .13391 1.0889 120.0 21.0  46d 177
2026 07 24 15  16 13 41.317   -66 08 21.14  .13428 1.0891 120.0 21.0  46d 177
2026 07 24 16  16 13 38.242   -66 08 20.80  .13466 1.0893 120.0 21.0  46d 177
2026 07 24 17  16 13 35.204   -66 08 20.43  .13503 1.0894 119.9 21.0  46d 177
2026 07 24 18  16 13 32.202   -66 08 20.01  .13541 1.0896 119.9 21.1  46d 177
2026 07 24 19  16 13 29.236   -66 08 19.55  .13578 1.0897 119.9 21.1  46d 177
2026 07 24 20  16 13 26.306   -66 08 19.05  .13616 1.0899 119.8 21.1  46d 177
2026 07 24 21  16 13 23.411   -66 08 18.52  .13653 1.0901 119.8 21.1  46d 177
2026 07 24 22  16 13 20.551   -66 08 17.94  .13691 1.0902 119.8 21.1  46d 177
2026 07 24 23  16 13 17.726   -66 08 17.33  .13728 1.0904 119.8 21.1  46d 177
2026 07 25 00  16 13 14.936   -66 08 16.67  .13766 1.0906 119.7 21.1  46d 177
2026 07 25 01  16 13 12.181   -66 08 15.98  .13803 1.0907 119.7 21.1  46d 177
2026 07 25 02  16 13 09.460   -66 08 15.26  .13841 1.0909 119.7 21.1  46d 178
2026 07 25 03  16 13 06.772   -66 08 14.49  .13878 1.0910 119.6 21.1  46d 178
2026 07 25 04  16 13 04.119   -66 08 13.69  .13916 1.0912 119.6 21.1  46d 178
2026 07 25 05  16 13 01.499   -66 08 12.85  .13953 1.0914 119.6 21.1  46d 178
2026 07 25 06  16 12 58.912   -66 08 11.98  .13991 1.0915 119.6 21.1  46d 178
2026 07 25 07  16 12 56.359   -66 08 11.07  .14028 1.0917 119.5 21.1  46d 178
2026 07 25 08  16 12 53.838   -66 08 10.12  .14066 1.0918 119.5 21.1  46d 178
2026 07 25 09  16 12 51.350   -66 08 09.14  .14103 1.0920 119.5 21.1  46d 178
2026 07 25 10  16 12 48.894   -66 08 08.12  .14141 1.0922 119.4 21.2  46d 178